[[{"header":{"parameterUnit":"m.s-1","parameterCategory":1,"la1":30.2991,"la2":30.254,"lo1":-89.0895,"lo2":-89.0444,"dy":0.0017,"dx":0.0017,"nx":28,"ny":28,"refTime":"2023-07-28T09:00:00:Z","depth":0,"parameterNumber":2,"parameterNumberName":"U-component_of_WINDS"},"data":[0,0,0,0,0,0,0,0,0,0,0,0,0,0,0,0,0,0,0,0,0,0,0,0,0,0,0,0,0,0,0,0,0,0,0,0,0,0,0,0,0,0,0,0,0,0,0,0,0,0,0,0,0,0,0,0,0,0,1.7324,1.7325,0,1.7479,1.7481,1.7483,1.751,1.7509,1.7508,1.7506,1.7668,1.7674,1.7679,0,0,0,0,0,0,0,0,0,0,0,0,0,1.7052,1.7057,1.7324,1.7326,1.7327,1.7479,1.7481,1.7483,1.751,1.7509,1.7507,1.7506,1.7666,1.7673,1.7679,0,0,0,0,0,0,0,0,0,0,0,0,0,1.7185,1.7058,1.7323,1.7359,1.7364,1.7478,1.7481,1.7484,1.7511,1.7509,1.7507,1.7505,1.7664,1.7672,1.768,1.777,0,0,1.7706,1.7709,0,0,0,0,0,0,0,0,1.7177,1.7195,1.7352,1.7357,1.7363,1.7473,1.7445,1.758,1.7511,1.7455,1.7506,1.7504,1.7605,1.7618,1.7652,1.7778,1.7785,1.7706,1.7711,1.7715,1.7717,0,0,0,0,0,0,0,1.7168,1.7188,1.7385,1.7354,1.7361,1.7368,1.7385,1.747,1.7539,1.746,1.7462,1.748,1.7608,1.7644,1.7656,1.7787,1.7706,1.7714,1.7719,1.7722,1.7994,1.7996,0,0,0,0,0,0,1.7152,1.718,1.738,1.739,1.7263,1.7375,1.7393,1.744,1.7538,1.7551,1.7482,1.7481,1.763,1.7646,1.7661,1.7772,1.7715,1.7723,1.7727,1.7992,1.7994,1.7997,0,0,0,0,0,0,1.7146,1.717,1.7374,1.7286,1.7312,1.7381,1.7433,1.7444,1.748,1.7555,1.7567,1.7506,1.7629,1.765,1.7743,1.7778,1.7726,1.7734,1.7989,1.7993,1.7996,1.7995,0,0,0,0,0,0,1.7138,1.7167,1.7202,1.7286,1.7317,1.7452,1.7435,1.7448,1.7494,1.7494,1.7581,1.7593,1.7629,1.773,1.7751,1.7788,1.774,1.7986,1.7991,1.7995,1.7992,1.7997,1.8002,0,0,0,0,0,1.7128,1.7196,1.7204,1.7228,1.7362,1.7454,1.7472,1.7511,1.7496,1.7532,1.758,1.759,1.7771,1.7739,1.7763,1.7804,1.7984,1.7989,1.7994,1.7989,1.7996,1.8002,0,0,0,0,0,0,1.7116,1.7208,1.7217,1.7314,1.7376,1.7458,1.7504,1.7518,1.7586,1.7583,1.7631,1.765,1.774,1.7781,1.7745,1.7895,1.7877,1.7887,1.7865,1.7872,1.7877,1.7865,1.7747,0,0,0,0,0,1.7124,1.7191,1.7268,1.7347,1.7377,1.7435,1.7477,1.7502,1.7568,1.7595,1.765,1.7714,1.7785,1.7831,1.7901,1.7998,1.8017,1.8038,1.8043,1.8047,1.8055,1.8108,1.8118,1.8014,1.8014,1.8013,0,0,1.7142,1.7201,1.724,1.7345,1.7396,1.7464,1.7457,1.753,1.7581,1.7606,1.7696,1.7739,1.7814,1.7909,1.7953,1.7946,1.8088,1.8053,1.8056,1.8062,1.8114,1.8124,1.8132,1.8017,1.8016,1.8016,0,0,1.7209,1.7261,1.7331,1.7382,1.7458,1.7496,1.7513,1.7594,1.7622,1.7713,1.7733,1.7795,1.7917,1.7969,1.8011,1.8097,1.8109,1.8119,1.8146,1.8197,1.8206,1.8213,1.8242,1.8252,1.8126,1.8127,1.8127,0,1.7222,1.7325,1.7366,1.7437,1.7482,1.7507,1.7578,1.7626,1.7721,1.7752,1.7742,1.7895,1.7947,1.8054,1.8074,1.8108,1.8128,1.8109,1.8201,1.8209,1.8217,1.8245,1.8256,1.8127,1.8127,1.8127,1.8127,0,1.7337,1.7408,1.7455,1.7545,1.7596,1.7667,1.7718,1.7765,1.7786,1.7825,1.7917,1.798,1.8062,1.809,1.8112,1.82,1.8192,1.8191,1.8173,1.8226,1.8254,1.8265,1.8128,1.8128,1.8128,1.8127,0,0,1.74,1.7511,1.7528,1.7568,1.7654,1.771,1.7782,1.7861,1.79,1.7965,1.8026,1.8128,1.8127,1.8175,1.8202,1.8247,1.8309,1.8241,1.8243,1.825,1.8409,1.8408,1.842,1.8318,1.832,1.8322,1.8402,0,1.7477,1.7605,1.7643,1.7751,1.7816,1.7841,1.7903,1.7962,1.8001,1.8062,1.8105,1.8176,1.817,1.8199,1.8245,1.8292,1.8342,1.8287,1.8375,1.8377,1.8354,1.8434,1.8434,1.8507,1.8413,1.8415,1.8416,0,1.7583,1.7649,1.7762,1.7838,1.7868,1.7923,1.7998,1.8057,1.8124,1.8149,1.8202,1.8225,1.8301,1.8279,1.8384,1.8346,1.8384,1.8413,1.8416,1.8425,1.8399,1.8444,1.8531,1.8541,1.8434,1.8432,1.8431,0,1.7616,1.7733,1.7816,1.785,1.7941,1.798,1.8019,1.8085,1.813,1.8196,1.8225,1.8299,1.834,1.8397,1.8439,1.842,1.854,1.8522,1.8562,1.8561,1.8586,1.8584,1.8678,1.8613,1.8612,1.8612,1.8612,0,1.7697,1.7765,1.7832,1.7883,1.796,1.8003,1.8078,1.8119,1.8177,1.8237,1.8263,1.8318,1.8371,1.8434,1.8468,1.8548,1.8567,1.8589,1.8597,1.8586,1.8583,1.8611,1.8606,1.8615,1.8614,1.8614,1.8613,0,1.7746,1.7794,1.7885,1.7964,1.7985,1.8038,1.8106,1.8156,1.8195,1.8269,1.8289,1.8351,1.8425,1.8474,1.8569,1.8592,1.868,1.8687,1.8656,1.866,1.8697,1.8692,1.8812,1.8829,1.8753,1.8753,1.8754,0,1.7794,1.7847,1.7931,1.7972,1.8012,1.8078,1.8123,1.8168,1.8214,1.8294,1.8335,1.8411,1.8474,1.8591,1.8645,1.8717,1.8726,1.8763,1.8737,1.8724,1.8725,1.8721,1.8726,1.8767,1.8767,1.8768,1.8768,0,1.7873,1.7894,1.7958,1.803,1.8083,1.8143,1.8202,1.8234,1.8289,1.834,1.8415,1.8464,1.8561,1.8635,1.8713,1.8754,1.877,1.8776,1.8789,1.8778,1.8757,1.8767,1.8666,1.8773,1.8772,1.8772,1.8772,1.8772,1.7923,1.797,1.8036,1.8107,1.8156,1.821,1.8261,1.8306,1.8369,1.845,1.8473,1.8552,1.8617,1.8723,1.8765,1.8828,1.8823,1.8842,1.8847,1.8851,1.885,1.8748,1.8842,1.8842,1.8842,1.8842,1.8842,0,1.8002,1.8045,1.811,1.8191,1.8246,1.8256,1.8322,1.8367,1.8436,1.8496,1.8556,1.8643,1.8715,1.8774,1.8848,1.8887,1.8896,1.8905,1.8902,1.8911,1.8851,1.8831,1.8896,1.8896,1.8896,1.8896,1.8896,1.8896,1.805,1.813,1.8158,1.8263,1.8307,1.8383,1.842,1.847,1.8517,1.8612,1.8672,1.871,1.8769,1.8847,1.8914,1.8929,1.8955,1.8962,1.8978,1.8921,1.8915,1.8909,1.8891,1.8967,1.8967,1.9033,1.9034,1.9034]},{"header":{"parameterUnit":"m.s-1","parameterCategory":1,"la1":30.2991,"la2":30.254,"lo1":-89.0895,"lo2":-89.0444,"dy":0.0017,"dx":0.0017,"nx":28,"ny":28,"refTime":"2023-07-28T09:00:00:Z","depth":0,"parameterNumber":3,"parameterNumberName":"V-component_of_WINDS"},"data":[0,0,0,0,0,0,0,0,0,0,0,0,0,0,0,0,0,0,0,0,0,0,0,0,0,0,0,0,0,0,0,0,0,0,0,0,0,0,0,0,0,0,0,0,0,0,0,0,0,0,0,0,0,0,0,0,0,0,4.4085,4.4084,0,4.4057,4.4057,4.4056,4.4035,4.4035,4.4035,4.4034,4.4003,4.4003,4.4002,0,0,0,0,0,0,0,0,0,0,0,0,0,4.4115,4.4114,4.4085,4.4084,4.4084,4.4057,4.4056,4.4056,4.4035,4.4035,4.4035,4.4034,4.4003,4.4003,4.4002,0,0,0,0,0,0,0,0,0,0,0,0,0,4.4096,4.4114,4.4085,4.407,4.4069,4.4057,4.4056,4.4056,4.4035,4.4035,4.4035,4.4034,4.4004,4.4003,4.4002,4.4001,0,0,4.3999,4.3998,0,0,0,0,0,0,0,0,4.4097,4.4095,4.4073,4.4071,4.4069,4.4049,4.4056,4.4038,4.4035,4.4048,4.4034,4.4034,4.4019,4.4016,4.4012,4.4,4.3998,4.3999,4.3998,4.3998,4.3997,0,0,0,0,0,0,0,4.4098,4.4096,4.4074,4.4072,4.407,4.4064,4.4061,4.4052,4.4035,4.4047,4.4045,4.4042,4.4018,4.4013,4.4011,4.3998,4.3999,4.3998,4.3997,4.3997,4.398,4.398,0,0,0,0,0,0,4.4102,4.4097,4.4074,4.4073,4.4083,4.4063,4.406,4.4056,4.4035,4.4032,4.4042,4.4041,4.4014,4.4012,4.401,4.4005,4.3998,4.3997,4.3996,4.398,4.398,4.398,0,0,0,0,0,0,4.4103,4.4101,4.4076,4.4084,4.4081,4.4063,4.4059,4.4056,4.4051,4.4032,4.4028,4.4041,4.4014,4.4011,4.4003,4.4004,4.3996,4.3995,4.398,4.398,4.398,4.3998,0,0,0,0,0,0,4.4104,4.4101,4.4102,4.4085,4.408,4.4071,4.4059,4.4055,4.4049,4.4048,4.4029,4.4026,4.4014,4.4004,4.4002,4.4003,4.3995,4.398,4.398,4.398,4.3998,4.3999,4.4001,0,0,0,0,0,4.4105,4.4108,4.4102,4.41,4.4081,4.4071,4.4069,4.4055,4.405,4.4049,4.4037,4.4027,4.4004,4.4004,4.4001,4.4001,4.398,4.398,4.398,4.3997,4.3999,4.4001,0,0,0,0,0,0,4.4126,4.4106,4.4099,4.4097,4.4086,4.4068,4.4067,4.4058,4.4048,4.4046,4.4029,4.4025,4.4018,4.4009,4.4008,4.3998,4.399,4.399,4.4004,4.4006,4.4007,4.4009,4.3994,0,0,0,0,0,4.413,4.4125,4.4107,4.4107,4.4102,4.4085,4.408,4.4071,4.4058,4.4053,4.404,4.4028,4.4017,4.4011,4.4001,4.3996,4.399,4.3994,4.3996,4.3997,4.3997,4.3991,4.3992,4.3982,4.3982,4.3982,0,0,4.4139,4.4127,4.4125,4.4111,4.4101,4.4094,4.4082,4.4076,4.407,4.4052,4.4044,4.4033,4.4018,4.401,4.4006,4.4002,4.3998,4.3998,4.3999,4.3998,4.3991,4.3992,4.3993,4.3982,4.3982,4.3982,0,0,4.4152,4.4143,4.4141,4.4131,4.4117,4.4105,4.4105,4.4087,4.408,4.4071,4.4057,4.4049,4.4032,4.4021,4.4013,4.4018,4.4007,4.4015,4.4022,4.4016,4.4017,4.4018,4.4017,4.4018,4.4015,4.4015,4.4015,0,4.4164,4.4155,4.4141,4.4134,4.4127,4.4111,4.4107,4.4098,4.4081,4.4075,4.4071,4.4048,4.4037,4.4025,4.4026,4.4021,4.4017,4.4017,4.4018,4.4019,4.4019,4.4019,4.4019,4.4016,4.4015,4.4015,4.4015,0,4.417,4.4163,4.4162,4.4146,4.4139,4.4134,4.4117,4.4111,4.4101,4.4089,4.4079,4.4064,4.4049,4.4046,4.4036,4.4032,4.4029,4.4022,4.4014,4.4021,4.402,4.402,4.4017,4.4017,4.4016,4.4016,0,0,4.4195,4.417,4.417,4.4161,4.4143,4.4137,4.4129,4.4116,4.411,4.4097,4.4089,4.4074,4.4067,4.4058,4.4046,4.4041,4.4043,4.4034,4.4033,4.4035,4.4034,4.4039,4.4039,4.4035,4.4035,4.4035,4.4035,0,4.4204,4.4192,4.4178,4.417,4.4162,4.4145,4.4138,4.4125,4.4114,4.4104,4.409,4.4079,4.4071,4.4065,4.4059,4.4044,4.4042,4.4044,4.4026,4.4026,4.403,4.4039,4.4045,4.4045,4.4034,4.4034,4.4034,0,4.4212,4.4201,4.4193,4.4173,4.4169,4.4163,4.4148,4.4139,4.4123,4.4114,4.4103,4.409,4.4079,4.4073,4.4056,4.4057,4.4049,4.404,4.4039,4.4037,4.403,4.4035,4.4045,4.4045,4.4034,4.4034,4.4034,0,4.423,4.4212,4.4204,4.4198,4.4175,4.4171,4.4161,4.4144,4.4136,4.4122,4.4115,4.41,4.4091,4.4078,4.4061,4.4058,4.4045,4.4037,4.4035,4.4036,4.4034,4.4034,4.4041,4.403,4.403,4.403,4.403,0,4.424,4.4235,4.4212,4.4207,4.4199,4.4182,4.4175,4.4163,4.4148,4.4138,4.4123,4.4114,4.4092,4.4079,4.4065,4.4052,4.4049,4.404,4.4036,4.4041,4.4042,4.4035,4.4034,4.403,4.403,4.403,4.403,0,4.4258,4.4243,4.4233,4.4211,4.4206,4.4201,4.4182,4.4175,4.4162,4.415,4.4146,4.4125,4.4109,4.409,4.4069,4.4059,4.4046,4.4041,4.4052,4.405,4.4049,4.4049,4.4051,4.405,4.404,4.4041,4.4041,0,4.4266,4.4261,4.4239,4.4232,4.4223,4.4212,4.4203,4.4185,4.4176,4.4155,4.415,4.4134,4.412,4.4095,4.4076,4.4059,4.4052,4.4054,4.405,4.4054,4.405,4.405,4.4049,4.4055,4.4056,4.4056,4.4056,0,4.4279,4.4271,4.426,4.4245,4.4235,4.4222,4.4209,4.4203,4.4182,4.4172,4.4156,4.4145,4.4122,4.4105,4.4085,4.4072,4.4059,4.4057,4.4056,4.406,4.4066,4.4061,4.4055,4.4058,4.4057,4.4057,4.4057,4.4057,4.4291,4.4286,4.4269,4.4256,4.4244,4.4231,4.4223,4.4208,4.4195,4.4176,4.4165,4.4149,4.413,4.4101,4.4089,4.4074,4.407,4.4068,4.4067,4.4067,4.4068,4.4069,4.407,4.407,4.407,4.407,4.407,0,4.4303,4.4291,4.4279,4.426,4.4249,4.424,4.4223,4.4214,4.4201,4.4184,4.417,4.4151,4.4133,4.4112,4.4093,4.4085,4.4079,4.408,4.408,4.4077,4.4073,4.4076,4.4086,4.4086,4.4086,4.4086,4.4086,4.4086,4.4307,4.4297,4.4287,4.4269,4.4256,4.4241,4.4232,4.4219,4.4206,4.4185,4.4171,4.4158,4.4139,4.4117,4.41,4.4094,4.4087,4.409,4.4082,4.4079,4.4078,4.4076,4.4079,4.4089,4.4089,4.4087,4.4087,4.4087]}]]